Погода в Ноябрьске

Россия / Ямало-Ненецкий автономный округ     63°12′06″N   75°27′03″E
темп.,
°C
ветер,
м/с
пор.,
м/с
влажн.,
%
обл.,
%
осадки,
мм/ч
давл.,
гПа
погр.,
м
4 июля, пн
пн423:00+10с5969100 0.1 1008258
02:00+10с5874100 0.0 1008256
05:00+9с5870100 0.0 1009330
08:00+10с6765100 0.0 1010605
11:00+12с665882 0.0 1011861
14:00+14ссз5547100 0.0 10101955
17:00+13ссз454981 0.0 10101289
20:00+13зсз2257100 0.0 101054
5 июля, вт
вт523:00+12з2254100 0.0 101025
02:00+10с485989 0.0 1010201
05:00+10с46665 0.0 1010192
08:00+14с44535 0.0 1010614
11:00+16с22446 0.0 10091690
14:00+18с214128 0.0 10091851
17:00+18с214116 0.0 10081795
20:00+17ссв11545 0.0 100914
6 июля, ср
ср623:00+13з115861 0.0 100911
02:00+11сз33685 0.0 100920
05:00+14с236611 0.0 1010120
08:00+17ссз22588 0.0 1010567
11:00+18сз3353100 0.0 10111054
14:00+18зсз135123 0.0 1011857
17:00+20сз55516 0.0 1011971
20:00+19зсз22645 0.0 101226
7 июля, чт
чт723:00+15зюз337160 0.0 101216
02:00+15з337998 0.0 101330
05:00+16сз2378100 0.0 101449
08:00+18ссз2371100 0.0 1014300
11:00+20з1266100 0.0 1014471
14:00+23зюз235438 0.1 10141413
17:00+23з435957 0.4 1014800
20:00+21юз1172100 0.2 101411
8 июля, пт
пт823:00+18юз337748 0.3 101416
02:00+18зюз457710 0.0 101373
05:00+18зсз37750 0.0 1013153
08:00+23з455717 0.0 1012505
11:00+27з66440 0.0 10111502
14:00+28з663935 0.0 10102596
17:00+27зюз67451 0.0 1010782
20:00+24зюз455449 0.0 101061